EZY75CE LIBD-LDDU

Flight info

Callsign EZY75CE
Flight time 0h 31m
Altitude 22000
Route BANAV DCT AIOSA
Aircraft A320/M-SDE3FGHIRWY/LB1

Departure

Time 2026-05-07 12:46
Airport Bari Karol Wojtyła International Airport (LIBD)

Arrival

Time 2026-05-07 13:17
Airport Dubrovnik Ruđer Bošković Airport (LDDU)
Time Latitude Longitude Altitude Speed Heading
2026-05-07 12:28 41.13526 16.76345 136 ft 0 kts 159°
2026-05-07 12:32 41.13514 16.76292 136 ft 0 kts 159°
2026-05-07 12:36 41.13535 16.76280 136 ft 4 kts 152°
2026-05-07 12:37 41.13557 16.76261 136 ft 4 kts 134°
2026-05-07 12:37 41.13570 16.76234 136 ft 4 kts 85°
2026-05-07 12:37 41.13567 16.76219 136 ft 1 kts 69°
2026-05-07 12:37 41.13567 16.76218 136 ft 0 kts 69°
2026-05-07 12:39 41.13569 16.76223 136 ft 4 kts 68°
2026-05-07 12:40 41.13595 16.76312 136 ft 11 kts 69°
2026-05-07 12:40 41.13620 16.76401 136 ft 10 kts 69°
2026-05-07 12:40 41.13644 16.76486 136 ft 10 kts 67°
2026-05-07 12:40 41.13692 16.76544 136 ft 9 kts 26°
2026-05-07 12:41 41.13749 16.76558 136 ft 8 kts 348°
2026-05-07 12:41 41.13787 16.76554 135 ft 11 kts 14°
2026-05-07 12:41 41.13835 16.76658 133 ft 16 kts 69°
2026-05-07 12:41 41.13900 16.76892 121 ft 23 kts 70°
2026-05-07 12:42 41.13961 16.77105 119 ft 26 kts 70°
2026-05-07 12:42 41.14001 16.77246 119 ft 15 kts 69°
2026-05-07 12:42 41.14044 16.77368 118 ft 15 kts 44°
2026-05-07 12:42 41.14125 16.77412 117 ft 6 kts 16°
2026-05-07 12:43 41.14129 16.77413 118 ft 0 kts 15°
2026-05-07 12:44 41.14132 16.77414 117 ft 4 kts 15°
2026-05-07 12:44 41.14204 16.77394 114 ft 13 kts 314°
2026-05-07 12:44 41.14204 16.77309 117 ft 0 kts 250°
2026-05-07 12:45 41.14204 16.77307 117 ft 2 kts 250°
2026-05-07 12:45 41.14141 16.77089 123 ft 60 kts 249°
2026-05-07 12:45 41.13915 16.76280 129 ft 124 kts 250°
2026-05-07 12:45 41.13549 16.75023 300 ft 157 kts 252°
2026-05-07 12:46 41.13196 16.73666 1044 ft 156 kts 251°
2026-05-07 12:46 41.12839 16.72308 1660 ft 165 kts 245°
2026-05-07 12:46 41.12405 16.70825 2072 ft 181 kts 245°
2026-05-07 12:46 41.11924 16.69171 2434 ft 204 kts 244°
2026-05-07 12:47 41.11405 16.67381 3180 ft 209 kts 244°
2026-05-07 12:47 41.10883 16.65564 3967 ft 215 kts 246°
2026-05-07 12:47 41.10344 16.63684 4735 ft 221 kts 248°
2026-05-07 12:47 41.09787 16.61753 5498 ft 226 kts 248°
2026-05-07 12:48 41.09221 16.59787 6322 ft 230 kts 249°
2026-05-07 12:48 41.09013 16.57688 7076 ft 237 kts 280°
2026-05-07 12:48 41.09843 16.55804 7914 ft 246 kts 319°
2026-05-07 12:48 41.11416 16.54952 8774 ft 250 kts 356°
2026-05-07 12:49 41.13138 16.55417 9552 ft 259 kts 19°
2026-05-07 12:49 41.14828 16.56289 10299 ft 262 kts 19°
2026-05-07 12:49 41.16530 16.57207 11017 ft 266 kts 20°
2026-05-07 12:49 41.18252 16.58140 11771 ft 269 kts 19°
2026-05-07 12:50 41.20004 16.59079 12488 ft 273 kts 18°
2026-05-07 12:50 41.21748 16.60134 13230 ft 280 kts 31°
2026-05-07 12:50 41.23179 16.61875 13920 ft 288 kts 53°
2026-05-07 12:50 41.24099 16.64317 14239 ft 308 kts 78°
2026-05-07 12:51 41.24407 16.67223 14436 ft 329 kts 86°
2026-05-07 12:51 41.24656 16.70355 14600 ft 353 kts 86°
2026-05-07 12:51 41.24941 16.73702 14728 ft 376 kts 83°
2026-05-07 12:51 41.25747 16.77090 15046 ft 391 kts 63°
2026-05-07 12:52 41.27333 16.80040 15619 ft 396 kts 43°
2026-05-07 12:52 41.29531 16.82212 16255 ft 395 kts 24°
2026-05-07 12:52 41.32081 16.83562 16896 ft 396 kts 17°
2026-05-07 12:52 41.34683 16.84800 17555 ft 398 kts 17°
2026-05-07 12:53 41.37308 16.86043 18208 ft 402 kts 17°
2026-05-07 12:53 41.39957 16.87300 18771 ft 405 kts 17°
2026-05-07 12:53 41.42622 16.88569 19310 ft 408 kts 17°
2026-05-07 12:53 41.45308 16.89855 19847 ft 412 kts 17°
2026-05-07 12:54 41.48012 16.91158 20373 ft 415 kts 17°
2026-05-07 12:54 41.50701 16.92459 20886 ft 418 kts 17°
2026-05-07 12:54 41.53451 16.93773 21401 ft 421 kts 16°
2026-05-07 12:54 41.56246 16.94973 21870 ft 424 kts 14°
2026-05-07 12:55 41.59083 16.96068 22015 ft 425 kts 12°
2026-05-07 12:55 41.61950 16.97101 22042 ft 427 kts 12°
2026-05-07 12:55 41.64823 16.98119 22041 ft 428 kts 12°
2026-05-07 12:55 41.67695 16.99152 22041 ft 428 kts 12°
2026-05-07 12:56 41.70547 17.00311 22039 ft 430 kts 19°
2026-05-07 12:56 41.73239 17.02071 22040 ft 433 kts 29°
2026-05-07 12:56 41.75684 17.04440 22044 ft 436 kts 39°
2026-05-07 12:56 41.77953 17.07137 22047 ft 436 kts 40°
2026-05-07 12:57 41.80224 17.09835 22049 ft 436 kts 40°
2026-05-07 12:57 41.82495 17.12528 22049 ft 436 kts 40°
2026-05-07 12:57 41.84766 17.15221 22046 ft 436 kts 40°
2026-05-07 12:57 41.87040 17.17919 22045 ft 436 kts 40°
2026-05-07 12:58 41.89306 17.20614 22053 ft 436 kts 40°
2026-05-07 12:58 41.91577 17.23321 22052 ft 436 kts 40°
2026-05-07 12:58 41.93844 17.26015 22057 ft 436 kts 39°
2026-05-07 12:58 41.96141 17.28675 22052 ft 436 kts 39°
2026-05-07 12:59 41.98459 17.31299 22050 ft 436 kts 38°
2026-05-07 12:59 42.00759 17.33871 22052 ft 436 kts 38°
2026-05-07 12:59 42.03092 17.36479 22051 ft 436 kts 38°
2026-05-07 12:59 42.05420 17.39092 22052 ft 436 kts 38°
2026-05-07 13:00 42.07746 17.41724 22049 ft 436 kts 38°
2026-05-07 13:00 42.10061 17.44359 22072 ft 436 kts 38°
2026-05-07 13:00 42.12376 17.47000 22072 ft 436 kts 38°
2026-05-07 13:00 42.14687 17.49640 22069 ft 436 kts 38°
2026-05-07 13:01 42.16994 17.52277 22010 ft 432 kts 38°
2026-05-07 13:01 42.19266 17.54879 21557 ft 426 kts 38°
2026-05-07 13:01 42.21513 17.57453 21024 ft 422 kts 38°
2026-05-07 13:01 42.23745 17.60012 20515 ft 418 kts 38°
2026-05-07 13:02 42.25956 17.62549 19986 ft 416 kts 38°
2026-05-07 13:02 42.28157 17.65074 19450 ft 414 kts 38°
2026-05-07 13:02 42.30353 17.67589 18905 ft 413 kts 38°
2026-05-07 13:02 42.32543 17.70098 18352 ft 413 kts 38°
2026-05-07 13:03 42.34729 17.72609 17755 ft 411 kts 38°
2026-05-07 13:03 42.36899 17.75106 17202 ft 408 kts 38°
2026-05-07 13:03 42.39056 17.77590 16679 ft 406 kts 38°
2026-05-07 13:03 42.41188 17.80056 16380 ft 397 kts 38°
2026-05-07 13:04 42.43252 17.82450 16264 ft 385 kts 38°
2026-05-07 13:04 42.45262 17.84765 16101 ft 373 kts 36°
2026-05-07 13:04 42.47369 17.86598 15964 ft 358 kts 24°
2026-05-07 13:04 42.49533 17.88140 15639 ft 346 kts 24°
2026-05-07 13:05 42.51657 17.89613 15036 ft 339 kts 18°
2026-05-07 13:05 42.53894 17.90244 14474 ft 322 kts 353°
2026-05-07 13:05 42.56030 17.89691 14053 ft 309 kts 332°
2026-05-07 13:05 42.57806 17.88174 13631 ft 298 kts 311°
2026-05-07 13:06 42.59026 17.85977 13242 ft 289 kts 294°
2026-05-07 13:06 42.59967 17.83573 12862 ft 288 kts 294°
2026-05-07 13:06 42.60899 17.81182 12486 ft 286 kts 294°
2026-05-07 13:06 42.61830 17.78795 12115 ft 285 kts 294°
2026-05-07 13:07 42.62759 17.76422 11759 ft 284 kts 294°
2026-05-07 13:07 42.63684 17.74054 11423 ft 283 kts 294°
2026-05-07 13:07 42.64604 17.71693 11027 ft 283 kts 294°
2026-05-07 13:07 42.65575 17.69345 10597 ft 287 kts 303°
2026-05-07 13:08 42.67108 17.67584 10226 ft 296 kts 330°
2026-05-07 13:08 42.69128 17.67006 9813 ft 304 kts
2026-05-07 13:08 42.71138 17.67848 9543 ft 302 kts 26°
2026-05-07 13:08 42.72962 17.69169 9401 ft 290 kts 26°
2026-05-07 13:09 42.74564 17.70684 9164 ft 275 kts 47°
2026-05-07 13:09 42.75578 17.72827 8742 ft 267 kts 72°
2026-05-07 13:09 42.75881 17.75263 8209 ft 259 kts 96°
2026-05-07 13:09 42.75488 17.77597 7696 ft 251 kts 119°
2026-05-07 13:10 42.74679 17.79682 7223 ft 250 kts 122°
2026-05-07 13:10 42.73860 17.81752 6957 ft 247 kts 122°
2026-05-07 13:10 42.73055 17.83811 6661 ft 245 kts 121°
2026-05-07 13:10 42.72262 17.85844 6183 ft 243 kts 122°
2026-05-07 13:11 42.71471 17.87867 5893 ft 241 kts 122°
2026-05-07 13:11 42.70699 17.89843 5598 ft 238 kts 122°
2026-05-07 13:11 42.69922 17.91828 5275 ft 237 kts 122°
2026-05-07 13:11 42.69153 17.93792 4998 ft 234 kts 123°
2026-05-07 13:12 42.68391 17.95734 4749 ft 232 kts 123°
2026-05-07 13:12 42.67640 17.97651 4595 ft 228 kts 123°
2026-05-07 13:12 42.66903 17.99527 4474 ft 223 kts 123°
2026-05-07 13:12 42.66179 18.01370 4331 ft 222 kts 122°
2026-05-07 13:13 42.65440 18.03246 4063 ft 228 kts 122°
2026-05-07 13:13 42.64689 18.05158 3758 ft 229 kts 121°
2026-05-07 13:13 42.63943 18.07056 3459 ft 226 kts 121°
2026-05-07 13:13 42.63215 18.08906 3161 ft 216 kts 121°
2026-05-07 13:14 42.62526 18.10656 2879 ft 204 kts 121°
2026-05-07 13:14 42.61873 18.12313 2615 ft 194 kts 120°
2026-05-07 13:14 42.61256 18.13876 2380 ft 181 kts 120°
2026-05-07 13:14 42.60695 18.15297 2164 ft 158 kts 119°
2026-05-07 13:15 42.60205 18.16538 1929 ft 141 kts 120°
2026-05-07 13:15 42.59754 18.17679 1750 ft 134 kts 119°
2026-05-07 13:15 42.59325 18.18764 1562 ft 132 kts 120°
2026-05-07 13:15 42.58890 18.19863 1393 ft 133 kts 120°
2026-05-07 13:16 42.58459 18.20959 1230 ft 129 kts 119°
2026-05-07 13:16 42.58035 18.22044 1029 ft 132 kts 119°
2026-05-07 13:16 42.57603 18.23139 850 ft 130 kts 120°
2026-05-07 13:16 42.57167 18.24223 688 ft 136 kts 120°
2026-05-07 13:17 42.56732 18.25327 559 ft 130 kts 118°
2026-05-07 13:17 42.56361 18.26260 534 ft 88 kts 118°
2026-05-07 13:17 42.56198 18.26645 534 ft 18 kts 153°
2026-05-07 13:17 42.56167 18.26633 534 ft 5 kts 213°
2026-05-07 13:18 42.56146 18.26596 534 ft 8 kts 240°
2026-05-07 13:18 42.56123 18.26537 534 ft 0 kts 242°
2026-05-07 13:20 42.56108 18.26497 534 ft 15 kts 244°
2026-05-07 13:20 42.56131 18.26364 534 ft 15 kts 299°
2026-05-07 13:21 42.56177 18.26248 534 ft 14 kts 298°
2026-05-07 13:21 42.56220 18.26139 534 ft 12 kts 298°
2026-05-07 13:21 42.56260 18.26041 534 ft 11 kts 298°
2026-05-07 13:21 42.56296 18.25951 534 ft 10 kts 298°
2026-05-07 13:22 42.56328 18.25870 534 ft 9 kts 297°
2026-05-07 13:22 42.56336 18.25805 534 ft 6 kts 237°
2026-05-07 13:22 42.56303 18.25779 534 ft 5 kts 208°
2026-05-07 13:22 42.56296 18.25774 534 ft 2 kts 208°
2026-05-07 13:56 42.56147 18.26154 534 ft 0 kts 208°